sat.trackr.live / text

‹ back to catalog

HULIANWANG DIGUI-33

NORAD 64286 · 2025-121D

PAYLOAD ACTIVE UNKNOWN

§ Identity

Operator
Country
PRC
Launch date
2025-06-05
Launch site
TAISC
Launch vehicle
Mass (kg)
RCS (m²)

External: N2YO · Heavens-Above · Gunter

§ Orbital elements

Epoch: 2026-05-25T02:28:31.622592Z

Period
108.73 min
Inclination
86.5028°
Eccentricity
0.0001686
Mean motion
13.24407587 rev/d
Perigee alt
1,166.7 km
Apogee alt
1,169.2 km
Semi-major
7,546.1 km
B*
2.3375e-5
RAAN
21.4010°
Arg perigee
88.3240°
Mean anomaly
271.8087°
Rev number
4,710

§ Raw data

HULIANWANG DIGUI-331 64286U 25121D   26145.10314378  .00000025  00000+0  23375-4 0  99922 64286  86.5028  21.4010 0001686  88.3240 271.8087 13.24407587 47107

JSON: /api/v1/satellites/64286 · /tle

For live sub-satellite position, see the globe view (requires WebGL).

§ Visibility from observer

Set your observer location to see the next 7 days of passes ≥ 10°. The values pass through the URL so the page stays shareable.

No JS? Fill the form by hand. The geolocation button needs JavaScript.